Weather History for PATK - August, 2013

Change the Weather History Date:

Tuesday, August 20, 2013

  Actual Average Record
Temperature  
Mean Temperature 54 °F -  
Max Temperature 57 °F 62 °F 82 °F (1977)
Min Temperature 52 °F 45 °F 33 °F (1969)
Degree Days  
Heating Degree Days 10    
Growing Degree Days 4 (Base 50)    
Moisture  
Dew Point 51 °F    
Average Humidity 91    
Maximum Humidity 100    
Minimum Humidity 81    
Precipitation  
Precipitation 0.02 in - - ()
Sea Level Pressure  
Sea Level Pressure 29.80 in    
Wind  
Wind Speed 4 mph (South)    
Max Wind Speed 13 mph    
Max Gust Speed 17 mph    
Visibility 10 miles    
Events      
Averages and records for this station are not official NWS values.
T = Trace of Precipitation, MM = Missing Value Source: NWS Daily Summary

Daily Weather History Graph

Daily Weather History Graph

Search for Another Location

Airport or City:

Trip Planner

Search our weather history database for the weather conditions in past years. The results will help you decide how hot, cold, wet, or windy it might be!

Date:

Astronomy

Aug. 20, 2013 Rise Set
Actual Time 6:17 AM AKDT 9:47 PM AKDT
Civil Twilight 5:23 AM AKDT 10:41 PM AKDT
Nautical Twilight 4:00 AM AKDT 12:02 AM AKDT
Astronomical Twilight 2:36 AM AKDT 1:31 AM AKDT
Moon 8:59 PM AKDT (8/20) 6:12 AM AKDT (8/20)
Length of Visible Light 17h 18m
Length of Day
15h 30m
Full, 100% of the Moon is Illuminated
Aug 20
Full
Aug 20
Full
Aug 28
Last Quarter
Sep 5
New
Sep 12
First Quarter

Hourly Weather History & Observations

Time (AKDT) Temp. Dew Point Humidity Pressure Visibility Wind Dir Wind Speed Gust Speed Precip Events Conditions
12:45 AM 51.8 °F 51.8 °F 100% 29.75 in 10.0 mi Calm Calm - N/A   Overcast
12:53 AM 52.0 °F 51.1 °F 97% 29.76 in 10.0 mi Calm Calm - N/A   Overcast
1:53 AM 52.0 °F 51.1 °F 97% 29.77 in 10.0 mi Calm Calm - N/A   Overcast
2:08 AM 51.8 °F 51.8 °F 100% 29.76 in 10.0 mi Calm Calm - N/A   Overcast
2:35 AM 51.8 °F 50.0 °F 94% 29.77 in 4.0 mi Calm Calm - 0.05 in   Overcast
2:50 AM 51.8 °F 50.0 °F 94% 29.77 in 10.0 mi SSW 3.5 mph - 0.06 in   Overcast
2:53 AM 52.0 °F 50.0 °F 93% 29.78 in 9.0 mi Calm Calm - 0.06 in   Overcast
3:29 AM 51.8 °F 51.8 °F 100% 29.77 in 10.0 mi Calm Calm - N/A   Overcast
3:53 AM 52.0 °F 51.1 °F 97% 29.78 in 10.0 mi Calm Calm - N/A   Overcast
4:53 AM 52.0 °F 51.1 °F 97% 29.78 in 10.0 mi Calm Calm - N/A   Overcast
5:53 AM 52.0 °F 51.1 °F 97% 29.78 in 10.0 mi Calm Calm - N/A   Overcast
6:39 AM 51.8 °F 50.0 °F 94% 29.77 in 10.0 mi SSE 5.8 mph - N/A   Overcast
6:53 AM 52.0 °F 50.0 °F 93% 29.79 in 10.0 mi South 8.1 mph - N/A   Overcast
7:24 AM 51.8 °F 50.0 °F 94% 29.78 in 10.0 mi South 4.6 mph - N/A   Overcast
7:53 AM 52.0 °F 50.0 °F 93% 29.79 in 10.0 mi South 5.8 mph - N/A   Overcast
8:53 AM 53.1 °F 51.1 °F 93% 29.81 in 10.0 mi South 6.9 mph - N/A   Overcast
9:53 AM 54.0 °F 51.1 °F 90% 29.81 in 10.0 mi South 6.9 mph - N/A   Overcast
10:53 AM 54.0 °F 51.1 °F 90% 29.82 in 10.0 mi South 8.1 mph - N/A   Overcast
11:53 AM 55.0 °F 52.0 °F 89% 29.81 in 10.0 mi South 10.4 mph - N/A   Overcast
12:04 PM 55.4 °F 51.8 °F 88% 29.80 in 10.0 mi South 9.2 mph - N/A   Overcast
12:53 PM 55.0 °F 52.0 °F 89% 29.83 in 10.0 mi SSW 11.5 mph - N/A   Overcast
1:14 PM 55.4 °F 51.8 °F 88% 29.82 in 10.0 mi South 9.2 mph - N/A   Overcast
1:29 PM 55.4 °F 51.8 °F 88% 29.82 in 10.0 mi South 11.5 mph - N/A   Overcast
1:53 PM 55.0 °F 52.0 °F 89% 29.83 in 10.0 mi South 8.1 mph - N/A   Overcast
2:40 PM 55.4 °F 51.8 °F 88% 29.82 in 10.0 mi South 6.9 mph - N/A   Overcast
2:53 PM 55.9 °F 52.0 °F 87% 29.83 in 10.0 mi South 8.1 mph - N/A   Overcast
3:53 PM 57.0 °F 54.0 °F 89% 29.82 in 7.0 mi South 6.9 mph - 0.02 in   Overcast
4:53 PM 57.0 °F 53.1 °F 87% 29.81 in 10.0 mi South 11.5 mph - N/A   Overcast
5:53 PM 57.9 °F 52.0 °F 81% 29.80 in 10.0 mi South 12.7 mph - N/A   Mostly Cloudy
6:53 PM 57.0 °F 52.0 °F 83% 29.80 in 10.0 mi South 10.4 mph 17.3 mph N/A   Mostly Cloudy
7:29 PM 57.2 °F 51.8 °F 82% 29.79 in 10.0 mi South 10.4 mph - N/A   Overcast
7:38 PM 55.4 °F 51.8 °F 88% 29.79 in 10.0 mi South 12.7 mph - N/A   Overcast
7:53 PM 55.9 °F 52.0 °F 87% 29.80 in 10.0 mi South 10.4 mph - N/A   Overcast
8:53 PM 55.0 °F 51.1 °F 86% 29.81 in 10.0 mi South 9.2 mph - N/A   Overcast
9:53 PM 53.1 °F 50.0 °F 89% 29.82 in 6.0 mi South 10.4 mph - 0.07 in   Overcast
10:53 PM 52.0 °F 50.0 °F 93% 29.82 in 8.0 mi South 10.4 mph - 0.05 in   Overcast
11:53 PM 53.1 °F 51.1 °F 93% 29.83 in 10.0 mi South 10.4 mph - 0.02 in   Overcast